Weather History for Lowell, ID

Change the Weather History Date:

Sunday, February 10, 2013

  Actual Average Record
Temperature  
Mean Temperature 37 °F -  
Max Temperature 46 °F 41 °F 122 °F (1998)
Min Temperature 32 °F 28 °F 24 °F (2005)
Degree Days  
Heating Degree Days 28    
Moisture  
Dew Point 32 °F    
Average Humidity 86    
Maximum Humidity 96    
Minimum Humidity 62    
Precipitation  
Precipitation 0.00 in - - ()
Sea Level Pressure  
Sea Level Pressure 30.30 in    
Wind  
Wind Speed 0 mph (SSE)    
Max Wind Speed 6 mph    
Max Gust Speed -    
Averages and records for this station are not official NWS values.
T = Trace of Precipitation, MM = Missing Value Source: NWS Daily Summary

Daily Weather History Graph

Daily Weather History Graph

Search for Another Location

Airport:

Trip Planner

Search our weather history database for the weather conditions in past years. The results will help you decide how hot, cold, wet, or windy it might be!

Date:

Astronomy

Feb. 10, 2013 Rise Set
Actual Time 7:52 AM MST 6:01 PM MST
Civil Twilight 7:21 AM MST 6:32 PM MST
Nautical Twilight 6:45 AM MST 7:08 PM MST
Astronomical Twilight 6:11 AM MST 7:42 PM MST
Moon 7:40 AM MST (2/10) 7:03 PM MST (2/10)
Length of Visible Light 11h 11m
Length of Day
10h 09m
New Moon, 0% of the Moon is Illuminated
Feb 10
New Moon
Feb 17
First Quarter
Feb 25
Full
Mar 4
Last Quarter
Mar 11
New

Hourly Weather History & Observations

Time (MST) Temp. Windchill Dew Point Humidity Pressure Visibility Wind Dir Wind Speed Gust Speed Precip Events Conditions
12:52 AM 33.1 °F - 32.0 °F 96% 30.25 in - Calm Calm - N/A   Unknown
1:52 AM 33.1 °F - 32.0 °F 96% 30.26 in - Calm Calm - N/A   Unknown
2:52 AM 33.1 °F - 32.0 °F 96% 30.28 in - Calm Calm - N/A   Unknown
3:52 AM 33.1 °F - 32.0 °F 96% 30.29 in - Calm Calm - N/A   Unknown
4:52 AM 32.0 °F - 30.9 °F 96% 30.30 in - Calm Calm - N/A   Unknown
5:52 AM 32.0 °F - 30.9 °F 96% 30.31 in - Calm Calm - N/A   Unknown
6:52 AM 33.1 °F - 30.9 °F 92% 30.32 in - Calm Calm - N/A   Unknown
7:52 AM 32.0 °F - 30.9 °F 96% 30.34 in - Calm Calm - N/A   Unknown
8:52 AM 33.1 °F - 30.9 °F 92% 30.35 in - Calm Calm - N/A   Unknown
9:52 AM 35.1 °F - 32.0 °F 89% 30.34 in - Calm Calm - N/A   Unknown
10:52 AM 36.0 °F - 30.9 °F 82% 30.35 in - Calm Calm - N/A   Unknown
11:52 AM 37.9 °F - 30.9 °F 76% 30.34 in - Calm Calm - N/A   Unknown
12:52 PM 41.0 °F - 30.9 °F 67% 30.30 in - Calm Calm - N/A   Unknown
1:52 PM 42.1 °F 38.4 °F 32.0 °F 67% 30.28 in - South 5.8 mph - N/A   Unknown
2:52 PM 42.1 °F 39.2 °F 30.0 °F 62% 30.27 in - SSE 4.6 mph - N/A   Unknown
3:52 PM 42.1 °F 38.4 °F 30.9 °F 65% 30.27 in - SSE 5.8 mph - N/A   Unknown
4:52 PM 39.0 °F - 35.1 °F 86% 30.28 in - Calm Calm - N/A   Unknown
5:52 PM 39.0 °F - 35.1 °F 86% 30.27 in - Calm Calm - N/A   Unknown
6:52 PM 37.0 °F - 34.0 °F 89% 30.30 in - Calm Calm - N/A   Unknown
7:52 PM 36.0 °F - 33.1 °F 89% 30.31 in - Calm Calm - N/A   Unknown
8:52 PM 35.1 °F - 30.9 °F 85% 30.32 in - Calm Calm - N/A   Unknown
9:52 PM 34.0 °F - 30.9 °F 89% 30.32 in - Calm Calm - N/A   Unknown
10:52 PM 34.0 °F - 30.9 °F 89% 30.31 in - Calm Calm - N/A   Unknown
11:52 PM 33.1 °F - 30.9 °F 92% 30.31 in - Calm Calm - N/A   Unknown